Flag for Germany Weather past 2 weeks in Heidenheim an der Brenz, Baden-Württemberg, Germany

Now
71 °F

Clear.


Feels Like: 76 °F
Forecast: 62 / 86 °F
Wind: 3 mph from Southeast

Location: Stoetten

Current Time: Aug 30, 2015 at 6:06:16 AM

Latest Report: Aug 30, 2015 at 5:00 AM


Visibility: 37 mi

Pressure: 30.06 "Hg

Humidity: 61%

Dew point: 57 °F

Location of Heidenheim an der BrenzLocation

Historic Weather in Heidenheim an der Brenz — Graph

°F

Heidenheim an der Brenz temperature yesterday

Maximum temperature yesterday: 83 °F (at 4:00 PM)
Minimum temperature yesterday: 61 °F (at 5:00 AM)
Average temperature yesterday: 72 °F

Past Weeks' High & Low Weather Summary

 TemperatureHumidityPressure
High83 °F (Aug 29, 4:00 PM)100% (Aug 15, 11:00 PM)30.28 "Hg (Aug 15, 11:00 PM)
Low48 °F (Aug 18, 7:00 AM)33% (Aug 27, 3:00 PM)29.67 "Hg (Aug 24, 3:00 PM)
Average61 °F75%30.00 "Hg
* Reported Aug 15 5:00 AM — Aug 30 5:00 AM, Heidenheim an der Brenz, Weather by CustomWeather, © 2015

Note: Actual official high and low records may vary slightly from our data, if they occured in-between our weather recording intervals... More about our weather records

Advertising

Heidenheim an der Brenz weather history for previous 24 hours

 ConditionsComfort  
Time TempWeatherWind HumidityBarometerVisibility
5:00 AM
Sun, Aug 30
71 °FClear.3 mph61%30.06 "Hg37 mi
4:00 AM70 °FClear.5 mph64%30.08 "Hg37 mi
3:00 AM71 °FClear.5 mph62%30.08 "Hg43 mi
2:00 AM71 °FClear.3 mph61%30.09 "Hg43 mi
1:00 AM72 °FClear.5 mph59%30.09 "Hg43 mi
12:00 AM72 °FClear.5 mph59%30.09 "Hg43 mi
11:00 PM
Sat, Aug 29
73 °FClear.5 mph61%30.09 "Hg43 mi
10:00 PM74 °FClear.3 mph57%30.09 "Hg43 mi
9:00 PM76 °FPassing clouds.3 mph54%30.07 "Hg47 mi
8:00 PM79 °FPassing clouds.2 mph51%30.05 "Hg47 mi
7:00 PM81 °FPassing clouds.3 mph48%30.04 "Hg47 mi
6:00 PM83 °FPassing clouds.2 mph43%30.05 "Hg47 mi
5:00 PM82 °FPassing clouds.2 mph45%30.06 "Hg47 mi
4:00 PM83 °FPassing clouds.3 mph44%30.07 "Hg47 mi
3:00 PM81 °FPassing clouds.2 mph47%30.10 "Hg47 mi
2:00 PM80 °FPassing clouds.2 mph49%30.12 "Hg47 mi
1:00 PM78 °FPassing clouds.3 mph60%30.14 "Hg47 mi
12:00 PM74 °FPassing clouds.3 mph63%30.17 "Hg43 mi
11:00 AM72 °FPassing clouds.5 mph71%30.18 "Hg43 mi
10:00 AM68 °FPassing clouds.6 mph80%30.19 "Hg37 mi
9:00 AM65 °FPassing clouds.6 mph87%30.19 "Hg31 mi
7:00 AM61 °FPassing clouds.5 mph98%30.19 "Hg31 mi
6:00 AM61 °FPassing clouds.5 mph96%30.19 "Hg31 mi
Weather by CustomWeather, © 2015

See weather overviewHow to use our weather pages